OPTUS D1

Last updated on Wed Sep 09 2026 00:02:58 GMT+0000 (Coordinated Universal Time)

1 29495U 06043B 26251.49956610 -.00000203 00000+0 00000+0 0 9992 2 29495 3.2431 78.5619 0003569 90.1647 150.6677 1.00271075 72958
UTC large
Height (km)
Speed (km/s)
/
Latitude / Longitude
Inclination (degrees)
Orbital Period (minutes)
Azimuth
Elevation
Range (km)
Doppler Factor

Next 0 passes for location: London (51.5072 / 0.1276)

No passes found over London.
OPTUS D1